Location: Cronhütte
(48.9135°N, 9.6869°E)
Time: 21:01:21
(UTC+00:00)

Cosmos 2360 Rocket - Pass Details

Date: 23 May 2024
Orbit: 832 x 846 km, 71.0° (Epoch: 14 June)

Event Time Altitude Azimuth Distance (km) Brightness Sun altitude
Rises 00:13:37 0° 335° (NNW) 3,416 6.2 -19.4°
Reaches altitude 10° 00:16:26 10° 347° (NNW) 2,479 5.6 -19.2°
Maximum altitude 00:21:17 28° 46° (NE) 1,547 4.2 -19.0°
Drops below altitude 10° 00:26:06 10° 104° (ESE) 2,469 4.7 -18.8°
Sets 00:28:54 0° 116° (ESE) 3,399 5.3 -18.7°
